Regional Weather Roundup
Issued by NWS Jackson, KY

Home | Current Version | Previous Version | Graphics & Text | Print | Product List | Glossary On
Versions: 1 2 3 4 5 6 7 8 9 10 11 12 13 14 15 16 17 18 19 20 21 22 23 24 25 26 27 28
000
ASUS43 KJKL 280210
RWRJKL

EAST KENTUCKY HOURLY WEATHER ROUNDUP
NATIONAL WEATHER SERVICE JACKSON KY
1000 PM EDT TUE SEP 27 2016

NOTE: "FAIR" INDICATES FEW OR NO CLOUDS BELOW 12,000 FEET WITH
NO SIGNIFICANT WEATHER AND/OR OBSTRUCTIONS TO VISIBILITY.

* THESE REPORTS ARE NOT UNDER NWS QUALITY CONTROL AND MAY NOT
  REPORT WEATHER SUCH AS PRECIPITATION AND FOG.

KYZ079-080-083-085-087-088-110-112-115-119-120-280300
...EASTERN KENTUCKY...

CITY           SKY/WX    TMP DP  RH WIND       PRES   REMARKS
JACKSON        CLEAR     62  42  47 CALM      29.95R
LONDON         CLEAR     55  47  74 CALM      29.95R
SOMERSET*      CLEAR     54  46  76 CALM      29.96S
MONTICELLO*    CLEAR     49  46  90 CALM      29.97R
WILLIAMSBURG*  CLEAR     55  52  88 CALM      29.96R
MIDDLESBORO*   CLEAR     54  50  87 CALM      29.97R
HARLAN APT*    PTCLDY    54  50  87 CALM      29.97R
PIKE CO APT*     N/A     64  40  42 CALM      29.95S
BIG SANDY APT* CLEAR     59  43  55 CALM      29.95R
MOREHEAD APT*  CLEAR     61  43  51 S3        29.95R
ASHLAND*       CLEAR     57  50  77 CALM      29.90S
$$

KYZ035-036-041-042-044-050-067-078-099-280300
...CENTRAL KENTUCKY...

CITY           SKY/WX    TMP DP  RH WIND       PRES   REMARKS
MT STERLING*   CLEAR     54  46  76 SW5       29.95S
FLEMING/MASON* CLEAR     61  42  50 SW7       29.93S
DANVILLE*      CLEAR     52  48  87 SW3       29.95S
LEXINGTON      CLEAR     61  43  51 S7        29.93R
FRANKFORT      CLEAR     59  46  62 SW5       29.91R
LOUISVILLE     CLEAR     67  46  47 S7        29.89S
LEBANON*         N/A     63  45  51 S5        29.93S
GLASGOW*       CLEAR     54  52  92 CALM      29.93S
BOWLING GREEN  CLEAR     60  50  69 CALM      29.93R
$$

KYZ091>093-OHZ055-061-077-WVZ005-015-034-035-042-280300
...SOUTHERN OHIO/WEST VIRGINIA...

CITY           SKY/WX    TMP DP  RH WIND       PRES   REMARKS
COVINGTON      CLEAR     58  50  75 S6        29.88R
COLUMBUS       PTCLDY    63  45  51 S6        29.87R
DAYTON         CLEAR     63  46  54 S9        29.86S
WILMINGTON     PTCLDY    58  46  64 S6        29.88S
HUNTINGTON     CLEAR     60  44  55 CALM      29.92R
CHARLESTON     CLEAR     57  47  69 CALM      29.94R
PINEVILLE*     CLEAR     51  47  86 MISG      30.01R
BECKLEY        CLEAR     53  41  63 CALM      29.98R
BLUEFIELD      CLEAR     58  42  55 SW5       29.99R
LOGAN CO APT*    N/A     59  48  67 CALM      29.94R
$$

VAZ002-007-008-TNZ017-027-036-066-071-280300
...SOUTHWEST VIRGINIA/EAST TENNESSEE...

CITY           SKY/WX    TMP DP  RH WIND       PRES   REMARKS
WISE*          PTCLDY    57  37  47 CALM      30.01R
JONESVILLE*      N/A     54  48  82 CALM      29.98R
ABINGDON*      CLEAR     62  60  95 CALM      29.96S
BRISTOL        PTCLDY    61  59  93 CALM      29.94R
MORRISTOWN*    PTCLDY    64  55  72 N3        29.92R
SEVIERVILLE*   CLEAR     64  61  88 CALM      29.92R
KNOXVILLE      PTCLDY    69  61  75 CALM      29.91R
OAK RIDGE      CLEAR     64  51  62 CALM      29.94R
CROSSVILLE     CLEAR     54  46  74 CALM      29.99R
NASHVILLE      CLEAR     62  45  53 VRB3      29.95R
$$

...KEY TO REMARKS...
VSB - VISIBILITY IN MILES
WCI - WIND CHILL INDEX
HX  - HEAT INDEX

$$




USA.gov is the U.S. government's official web portal to all federal, state and local government web resources and services.